Location: Milton Keynes
(52.0316°N, 0.7531°W)
Time: 19:32:57
(UTC+00:00)

Genesis I - Pass Details

Date: 27 January 2019
Orbit: 476 x 550 km, 64.5° (Epoch: 19 February)

Event Time Altitude Azimuth Distance (km) Brightness Sun altitude
Exits shadow 05:38:29 41° 332° (NNW) 805 3.8 -20.2°
Drops below altitude 10° 05:42:13 10° 35° (NE) 1,837 6.3 -19.6°
Sets 05:44:32 0° 42° (NE) 2,734 7.4 -19.2°
